Regional Weather Roundup
Issued by NWS Charleston, WV

Home | Current Version | Previous Version | Graphics & Text | Print | Product List | Glossary On
Versions: 1 2 3 4 5 6 7 8 9 10 11 12 13 14 15 16 17 18 19 20 21 22 23 24 25 26 27 28 29 30 31 32 33 34 35 36 37 38 39 40 41 42 43 44 45 46 47 48 49 50
000
ASUS41 KRLX 030510
RWRRLX
West Virginia Regional Weather Roundup
National Weather Service Charleston WV
1200 AM EST TUE MAR 03 2015

Note: "fair" indicates few or no clouds below 12,000 feet with no
significant weather and/or obstructions to visibility.

WVZ003-030600-
Northern Panhandle of West Virginia

CITY           SKY/WX    TMP DP  RH WIND       PRES   REMARKS
WHEELING         N/A     21  12  68 E6        30.36F
$$

WVZ009-030600-
Northwest West Virginia

CITY           SKY/WX    TMP DP  RH WIND       PRES   REMARKS
PARKERSBURG      N/A     23  16  74 CALM      30.39F
$$

WVZ006-030600-
Western West Virginia

CITY           SKY/WX    TMP DP  RH WIND       PRES   REMARKS
HUNTINGTON       N/A     29  19  66 E5        30.32F
$$

WVZ015-030600-
West Central West Virginia

CITY           SKY/WX    TMP DP  RH WIND       PRES   REMARKS
CHARLESTON       N/A     28  23  81 NE3       30.33F
$$

WVZ022-031-030600-
North Central West Virginia

CITY           SKY/WX    TMP DP  RH WIND       PRES   REMARKS
CLARKSBURG     MIX PCPN  24  17  74 E3        30.35F
MORGANTOWN       N/A     23  13  65 CALM      30.36F
$$

WVZ025-035-042-045-030600-
Southern West Virginia

CITY           SKY/WX    TMP DP  RH WIND       PRES   REMARKS
BECKLEY          N/A     28  16  60 SE7       30.28F
LOGAN            N/A     32  19  59 CALM      30.25F
BLUEFIELD        N/A     31  16  54 E5        30.27F
LEWISBURG        N/A     27  18  71 CALM      30.32F
$$

WVZ047-030600-
Northern Mountains of West Virginia

CITY           SKY/WX    TMP DP  RH WIND       PRES   REMARKS
ELKINS           N/A     18  17  96 CALM      30.33F
$$

WVZ052-030600-
Eastern Panhandle of West Virginia

CITY           SKY/WX    TMP DP  RH WIND       PRES   REMARKS
MARTINSBURG      N/A     27  14  58 NW6       30.41F
PETERSBURG       N/A     26  19  75 CALM      30.39F
$$



USA.gov is the U.S. government's official web portal to all federal, state and local government web resources and services.